KC9EM-13 Weather Reports


time (UTC)temp
C
wind
direction
speed
KPH
gust
KPH
rain 1hr
cm
rain 24hr
cm
rain mn
cm
humidity
%
barometer
mb
20260503184601 18 181 17.7 40.2 0.00 0.00 0.00 47 1016.6
20260503183047 17 235 14.5 37.0 0.00 0.00 0.00 48 1017.0
20260503181549 16 192 20.9 35.4 0.00 0.00 0.00 51 1017.3
20260503180051 17 214 20.9 38.6 0.00 0.00 0.00 48 1017.7
20260503174603 17 197 19.3 35.4 0.00 0.00 0.00 51 1017.9
20260503173048 17 218 16.1 35.4 0.00 0.00 0.00 51 1018.1
20260503171542 17 225 16.1 33.8 0.00 0.00 0.00 51 1018.4
20260503081549 6 208 1.6 6.4 0.00 0.03 0.00 70 1019.3
20260503071545 6 211 3.2 6.4 0.00 0.03 0.00 70 1019.3
20260503054545 6 199 1.6 4.8 0.00 0.03 0.00 67 1019.6
20260503053044 6 215 3.2 4.8 0.00 0.03 0.00 69 1019.8
20260503051545 6 0 0.0 1.6 0.00 0.03 0.00 69 1019.7
20260503050052 6 0 0.0 1.6 0.00 0.03 0.00 67 1019.8
20260503044548 6 0 0.0 0.0 0.00 0.03 0.00 66 1019.8
20260503043045 6 0 0.0 0.0 0.00 0.03 0.00 65 1019.7
20260503041544 7 0 0.0 0.0 0.00 0.03 0.00 65 1019.6
20260503040048 7 0 0.0 1.6 0.00 0.03 0.00 64 1019.6
20260503034600 7 348 0.0 1.6 0.00 0.03 0.03 62 1019.6
20260503033051 7 0 0.0 0.0 0.00 0.03 0.03 58 1019.6
20260503031547 7 0 0.0 0.0 0.00 0.03 0.03 59 1019.7
20260503030050 7 0 0.0 0.0 0.00 0.03 0.03 56 1019.8
20260503024551 8 0 0.0 0.0 0.00 0.03 0.03 55 1019.7
20260503023049 8 0 0.0 0.0 0.00 0.03 0.03 55 1019.5
20260503021550 8 0 0.0 0.0 0.00 0.03 0.03 55 1019.4
20260503020043 8 0 0.0 1.6 0.00 0.03 0.03 56 1019.3
20260503014550 9 0 0.0 0.0 0.00 0.03 0.03 55 1019.2
20260503013046 9 0 0.0 1.6 0.00 0.03 0.03 53 1019.1
20260503011547 10 0 0.0 3.2 0.00 0.03 0.03 52 1018.8
20260503004549 11 348 1.6 4.8 0.00 0.03 0.03 47 1018.7
20260503003056 11 349 3.2 8.0 0.00 0.03 0.03 46 1018.6
20260503001604 11 344 3.2 12.9 0.00 0.03 0.03 45 1018.5
20260503000049 11 19 3.2 16.1 0.00 0.03 0.03 43 1018.4
20260502234548 12 9 9.7 22.5 0.00 0.03 0.03 41 1018.3
20260502233045 12 343 8.0 20.9 0.00 0.03 0.03 40 1018.3
20260502231549 12 25 8.0 22.5 0.00 0.03 0.03 40 1018.3
20260502230046 12 351 9.7 22.5 0.00 0.03 0.03 41 1018.3
20260502224546 13 20 11.3 24.1 0.00 0.03 0.03 40 1018.3
20260502223048 12 331 8.0 19.3 0.00 0.03 0.03 42 1018.3
20260502221549 12 355 6.4 24.1 0.00 0.03 0.03 46 1018.1
20260502220046 12 12 9.7 19.3 0.00 0.03 0.03 43 1018.3
20260502214558 13 333 8.0 17.7 0.00 0.03 0.03 42 1018.1
20260502213047 13 304 8.0 22.5 0.00 0.03 0.03 42 1018.0
20260502211545 13 334 9.7 22.5 0.00 0.03 0.03 42 1017.9
20260502210047 13 19 4.8 20.9 0.00 0.03 0.03 42 1017.9
20260502204545 13 331 6.4 19.3 0.00 0.03 0.03 43 1017.9
20260502203044 13 13 8.0 16.1 0.00 0.03 0.03 46 1018.2
20260502201551 14 342 8.0 16.1 0.00 0.03 0.03 44 1018.3
20260502200045 12 5 4.8 14.5 0.00 0.03 0.03 48 1018.5
20260502194548 12 305 4.8 17.7 0.00 0.03 0.03 50 1018.3
20260502193044 12 342 8.0 16.1 0.00 0.03 0.03 50 1018.5
20260502191549 12 332 6.4 19.3 0.00 0.03 0.03 51 1018.6
20260502190046 12 355 6.4 14.5 0.00 0.03 0.03 50 1018.6